Starlink 32917

operational
NORAD ID: 62921 Int'l Des: 2025-027 Owner: SPXS Country: US Constellation: starlink
LEOCIRCULAR

About Starlink 32917

Description loading...

Live Position

Loading 3D Globe...

Upcoming Passes

Altitude History

Altitude vs Time

uPlot chart will show altitude changes over time

Two-Line Element Set

1 62921U 25027Q 25257.42065740 .00014877 00000-0 54876-3 0 9995
2 62921 43.0049 44.3943 0003375 281.7631 78.2842 15.27594225 34588
Epoch: Sep 14, 2025 • Age: 19 hours

Current Status

Altitude 484.2 km
Velocity 7.63 km/s
Sub-Earth Point -14.04°S, 42.43°W
Launch Date Feb 8, 2025
Age 0.5 years
Type internet

Technical Details

Classification Payload
Mass 730.00 kg
Dry Mass 700.00 kg
Total Mass 730.00 kg
Length 0.30 m
Diameter 4.10 m
Span 29.00 m
Shape Box + pan
Manufacturer SPXS
Bus Type Starlink V2M
Phase Status In Orbit
Owner/State SPXS/US

Large Constellations

Loading constellations...